STARLINK-1571 (46081 NORAD) Tracking and Keplerian Element Data

This shows tracking and keplerian element data for the satellite.

Feedback or suggestion? Click here.




ElementValue
Catalog46081
NameSTARLINK-1571
Epoch Orbit1933
Epoch Day336.81900985
Epoch Year2020
RAAN93.2053
Inclination53.0025
Eccentricity0.0001425
Argument of Perigee100.5865
Mean Anonmoly259.5284
Mean Motion15.05586947
Decay Rate-7.35E-06
L11 46081U 20055BG 20336.81900985 -.00000735 00000-0 -31274-4 0 9993
L22 46081 53.0025 93.2053 0001425 100.5865 259.5284 15.05586947 19336

Live tracking and technical data element details for STARLINK-1571 (NORAD 46081). STARLINK-1571 can be tracked NOW for your location showing map with azimuth and elevation plus other details from your city location.

Track the satellite on the map from your city or location and see movement details for azimuth, elevation, latitude, longitude, range, height, and movement on the map or in text.







IsCatalogInMostPopularTable: catalog: 46081, numindb: 36
Update: records affected: 1



GetName: 46081 STARLINK-1571

Hit Count: updated at: Wed, 02 Dec 2020 18:23:59 GMT